Location: Rogalle
(42.8890°N, 1.1916°E)
Time: 21:48:57
(UTC+00:00)

Cosmos 1844 Rocket - Pass Details

Date: 13 December 2025
Orbit: 822 x 845 km, 71.0° (Epoch: 21 January)

Event Time Altitude Azimuth Distance (km) Brightness Sun altitude
Rises 19:22:44 0° 334° (NNW) 3,405 6.1 -32.3°
Reaches altitude 10° 19:25:10 10° 334° (NNW) 2,469 5.3 -32.7°
Enters shadow 19:27:40 27° 332° (NNW) 1,559 4.2 -33.2°
